Find Starlink 5439

NORAD ID: 54783 Int'l Des: 2022-175 Owner: SPXS Country: US Constellation: starlink operational
LEOCIRCULAR

Live Position

Loading 3D Globe...

About Starlink 5439

Description loading...

Upcoming Passes

Passes for default location (London). Set your location on the main map for personalized predictions.

Altitude History

Loading altitude history...

Two-Line Element Set

1 54783U 22175AB 26109.58573485 .00001231 00000-0 95433-4 0 9992
2 54783 53.2174 205.5159 0001110 83.6353 276.4765 15.08827257186309
Epoch: Apr 19, 2026 • Age: 14 hours

Current Status

Altitude 551.1 km
Velocity 7.59 km/s
Sub-Earth Point -34.04°S, 148.39°E
Launch Date Dec 17, 2022
Age 3.3 years
Type internet

Technical Details

Classification Payload
Mass 305.00 kg
Dry Mass 290.00 kg
Total Mass 305.00 kg
Length 0.20 m
Diameter 2.80 m
Span 9.00 m
Shape Box + pan
Manufacturer SPXS
Bus Type Starlink
Phase Status In Orbit
Owner/State SPXS/US

Most Searched